Probability
3 3 2 1 0 0 0 0 0 0 0 0 0 0 0 0 0 0 0 0 0 0 0 0 0 0 0 0 0 0 0 0 0 0 0 0 0 0 0 0 0 0 0
4 3 2 1 0 0 0 0 0 0 0 0 0 0 0 0 0 0 0 0 0 0 0 0 0 0 0 0 0 0 0 0 0 0 0 0 0 0 0 0 0 0 0
4 4 2 0 0 0 0 0 0 0 0 0 0 0 0 0 0 0 0 0 0 0 0 0 0 0 0 0 0 0 0 0 0 0 0 0 0 0 0 0 0 0 0
4 4 3 1 0 0 0 0 0 0 0 0 0 0 0 0 0 0 0 0 0 0 0 0 0 0 0 0 0 0 0 0 0 0 0 0 0 0 0 0 0 0 0
2 3 3 2 0 0 0 0 0 0 0 0 0 0 0 0 0 0 0 0 0 0 0 0 0 0 0 0 0 0 0 0 0 0 0 0 0 0 0 0 0 0 0
2 3 3 2 1 0 0 0 0 0 0 0 0 0 0 0 0 0 0 0 0 0 0 0 0 0 0 0 0 0 0 0 0 0 0 0 0 0 0 0 0 0 0
3 3 3 3 2 1 0 0 0 0 0 0 0 0 0 0 0 0 0 0 0 0 0 0 0 0 0 0 0 0 0 0 0 0 0 0 0 0 0 0 0 0 0
3 2 3 3 2 1 0 0 0 0 0 0 0 0 0 0 0 0 0 0 0 0 0 0 0 0 0 0 0 0 0 0 0 0 0 0 0 0 0 0 0 0 0
3 2 2 3 4 3 1 1 0 0 0 0 0 0 0 0 0 0 0 0 0 0 0 0 0 0 0 0 0 0 0 0 0 0 0 0 0 0 0 0 0 0 0
3 2 1 4 6 6 5 3 1 1 0 0 0 0 0 0 0 0 0 0 0 0 0 0 0 0 0 0 0 0 0 0 0 0 0 0 0 0 0 0 0 0 0
5 4 3 5 8 9 7 6 4 2 1 0 0 1 1 0 0 0 0 0 0 0 0 0 0 0 0 0 0 0 0 0 0 0 0 0 0 0 0 0 0 0 0
8 6 6 7 8 9 9 8 6 4 2 1 1 2 2 1 0 0 0 0 0 0 0 0 0 0 0 0 0 0 0 0 0 0 0 0 0 0 0 0 0 0 0
7 7 8 8 8 9 9 9 8 5 3 3 2 2 3 2 1 0 0 0 0 0 0 0 0 0 0 0 0 0 0 0 0 0 0 0 0 0 0 0 0 0 0
5 7 8 8 9 9 9 10 10 8 5 4 3 3 3 3 2 1 0 0 0 0 0 0 0 0 0 0 0 0 1 1 0 0 0 0 0 0 0 0 0 0 0
4 6 7 7 8 9 9 10 11 9 7 5 4 4 3 2 2 1 1 1 0 0 0 0 0 0 0 0 0 0 1 2 1 0 0 0 0 0 0 0 0 0 0
5 5 5 5 5 7 9 11 11 9 7 6 6 5 3 3 3 2 1 0 0 0 0 0 0 0 0 0 0 0 1 2 1 0 0 0 0 0 0 0 0 0 0
6 5 3 2 2 3 7 9 9 8 7 7 6 5 4 3 3 3 1 1 0 0 0 0 0 0 0 1 1 1 0 1 1 0 0 0 0 0 0 0 0 0 0
6 5 4 3 1 1 3 5 6 7 7 8 8 6 4 3 3 3 3 3 2 1 0 0 1 1 0 1 2 1 1 1 1 0 0 0 0 0 0 0 0 0 0
6 7 6 4 2 0 1 2 4 6 7 9 9 7 4 2 2 2 4 3 2 1 0 0 1 2 2 3 5 4 3 3 2 0 0 0 0 0 0 0 0 0 0
7 9 9 5 2 1 1 3 4 5 7 8 9 7 4 1 0 1 1 2 1 1 1 0 1 3 5 7 7 6 6 6 3 1 0 0 0 0 0 0 0 0 0
9 11 11 7 3 2 3 4 5 6 6 8 7 6 3 1 0 0 0 0 1 2 3 3 3 6 8 8 5 5 6 6 3 1 1 0 0 0 0 0 0 0 0
11 13 13 9 5 4 2 2 4 6 7 7 6 4 1 0 1 1 0 0 1 2 4 5 6 7 7 5 3 3 4 4 2 1 1 0 0 0 0 0 0 0 0
12 13 13 10 8 5 2 0 2 5 6 5 4 3 1 1 1 1 0 0 0 0 2 3 4 5 4 2 2 2 2 2 1 1 0 0 0 0 0 0 0 0 0
11 11 11 10 9 5 1 0 1 4 5 3 3 3 2 1 1 1 0 0 0 0 0 1 1 1 1 1 1 1 1 1 0 0 0 0 0 0 0 0 0 0 0
10 9 7 7 7 4 1 0 1 3 2 1 1 1 1 0 0 0 0 0 0 0 0 0 0 0 0 0 0 0 0 0 0 0 0 0 0 0 0 0 0 0 0
10 8 5 5 4 2 0 0 1 1 1 0 0 0 0 0 0 0 0 0 0 0 0 0 0 0 0 0 0 0 0 0 0 0 0 0 0 0 0 0 0 0 0
Wind_Speed
5 5 4 3 4 4 5 4 4 5 4 4 4 5 4 3 3 4 7 9 7 7 8 8 7 7 6 6 6 6 6 6 6 6 6 6 6 6 5 5 5 4 5
5 5 5 4 4 4 4 4 5 5 4 3 4 4 4 4 4 3 5 8 8 7 7 8 8 7 7 7 7 7 7 7 7 7 6 6 6 6 6 5 5 5 5
6 5 5 5 4 4 4 4 5 4 4 4 4 4 3 3 4 4 4 4 7 9 8 7 7 7 7 7 7 8 7 7 7 7 7 7 7 6 6 6 6 5 5
6 5 5 5 5 4 5 4 4 4 3 3 3 3 3 3 4 4 4 4 3 5 9 9 7 7 7 7 8 8 8 8 8 8 8 8 8 8 7 7 7 6 7
7 6 4 4 5 5 4 5 4 4 4 3 3 3 3 3 4 4 4 4 4 4 5 9 9 7 8 8 8 8 8 9 10 10 10 10 10 9 9 9 8 8 8
7 6 5 6 6 5 4 3 3 2 2 3 3 3 2 3 3 3 4 5 5 5 5 5 7 9 10 8 7 7 8 9 9 10 10 10 10 10 10 10 10 10 9
7 6 5 6 6 5 5 6 4 5 4 3 3 3 3 4 3 3 4 3 4 4 4 5 4 3 6 11 8 7 7 8 9 9 10 10 10 10 10 11 11 11 11
7 7 6 6 7 5 5 5 5 4 4 4 3 3 4 4 5 4 4 4 4 4 5 6 4 4 4 4 7 9 7 7 8 9 9 10 10 10 10 10 11 11 11
8 7 8 7 6 7 6 7 7 6 4 4 4 3 3 3 4 5 4 4 3 3 4 3 5 4 4 3 4 9 8 7 7 8 8 8 9 9 9 10 10 11 11
9 9 8 7 7 6 6 7 7 6 5 4 4 3 3 3 2 3 5 5 5 4 3 3 4 4 4 4 2 2 6 5 6 7 7 7 8 8 9 10 10 11 10
9 9 9 8 7 7 7 6 6 7 6 5 4 4 4 3 4 3 2 3 5 4 3 3 2 2 2 3 2 3 6 4 4 4 5 5 6 7 7 9 10 11 11
8 10 9 8 8 7 7 7 7 8 6 5 4 4 4 4 4 3 2 3 3 3 3 2 2 2 2 2 2 7 4 3 3 3 3 4 4 5 5 7 8 9 10
7 9 9 8 7 7 7 7 7 6 6 6 6 5 4 3 3 3 3 2 2 3 3 3 2 1 1 1 2 4 4 3 2 3 3 3 4 4 5 5 6 7 8
7 8 9 9 8 8 8 7 7 7 5 6 6 4 3 3 3 3 3 3 3 3 4 3 2 1 0 1 3 3 3 4 2 2 3 3 3 4 4 5 5 6 6
6 9 9 8 8 8 7 7 6 6 6 6 6 6 5 3 3 3 3 3 4 3 2 4 3 2 1 1 2 2 1 5 2 0 1 2 2 3 3 4 4 5 5
7 8 9 9 8 8 8 7 6 6 6 5 4 4 4 3 2 3 3 3 4 5 3 0 1 1 2 2 3 2 1 5 4 3 2 2 3 3 3 3 4 4 5
8 9 9 9 9 9 8 7 7 7 7 6 5 5 5 3 3 3 3 3 3 4 4 3 1 2 1 3 2 3 2 2 3 5 4 3 3 3 3 3 3 4 4
8 9 9 9 9 9 8 8 8 7 7 7 6 5 5 4 4 3 3 3 2 3 4 4 1 1 1 1 2 3 2 2 1 7 6 4 4 4 4 4 4 4 5
8 8 9 9 8 8 8 8 7 6 6 5 5 5 5 5 4 2 2 2 2 2 3 3 2 0 1 1 2 2 1 2 3 4 5 4 4 3 3 3 4 4 5
8 8 7 7 7 8 8 7 7 6 5 4 3 3 3 3 3 3 2 1 1 1 1 2 2 1 1 1 2 3 2 2 3 3 3 1 2 3 3 2 3 5 5
8 8 8 7 7 6 7 7 7 7 6 5 5 4 4 6 7 4 2 1 0 1 1 1 1 1 2 3 3 4 4 4 2 3 4 4 2 2 1 3 4 6 6
7 8 8 8 7 5 7 8 7 7 6 6 6 6 7 8 11 12 13 12 9 4 3 2 2 2 3 4 4 5 5 5 4 4 6 6 4 4 4 3 6 5 5
7 7 7 7 7 7 10 9 7 6 6 6 6 5 5 7 7 8 11 12 14 14 10 5 5 5 4 5 6 5 5 6 6 6 6 6 5 5 5 2 5 2 2
7 7 7 7 7 9 11 11 10 7 7 7 6 6 6 6 6 6 8 9 10 10 9 7 7 7 7 6 6 5 5 5 5 2 4 6 6 6 7 6 4 4 3
7 7 7 8 9 9 10 11 10 8 9 10 8 8 8 9 9 6 8 9 9 8 11 12 10 7 6 6 7 5 6 6 6 5 4 6 7 8 8 7 2 5 6
8 8 9 8 9 9 9 9 8 8 10 9 9 10 13 11 9 7 7 7 7 6 5 5 4 3 2 3 2 5 6 7 7 6 5 6 8 8 8 6 7 8 8
Wind_Direction
169 157 156 164 173 153 164 173 162 153 160 163 168 153 158 142 139 140 131 155 168 172 173 171 175 176 176 177 176 175 175 171 170 169 167 167 167 166 164 164 169 171 172
165 167 167 171 171 172 160 169 159 167 175 157 168 152 166 161 151 167 146 156 173 181 185 186 186 187 189 191 190 193 194 190 187 186 186 185 184 187 188 188 188 190 191
168 181 172 179 173 161 158 181 166 170 171 168 166 163 166 162 151 172 166 161 165 178 190 196 199 199 201 204 203 202 203 202 201 201 201 200 198 202 205 206 207 206 206
175 192 184 180 171 180 178 173 188 176 172 177 164 177 158 166 166 177 179 178 176 170 178 189 202 208 213 217 214 213 210 210 210 213 212 212 210 212 214 216 218 217 215
182 196 194 170 183 189 187 195 171 195 177 181 179 172 182 178 175 185 182 181 181 196 174 168 190 205 215 223 224 222 218 217 216 219 220 220 219 219 219 222 223 225 224
189 199 193 184 195 190 189 193 164 195 195 192 204 146 183 179 196 183 203 183 188 201 201 181 187 192 204 219 227 231 229 222 221 223 226 227 226 224 223 225 228 230 232
189 204 201 181 202 191 189 184 189 181 192 180 191 179 183 202 201 190 212 211 194 198 199 195 214 207 184 196 210 224 230 228 226 225 228 231 232 229 227 230 232 233 235
196 200 208 200 195 186 189 193 198 208 185 191 221 204 190 187 203 194 189 200 205 195 198 197 197 205 244 194 165 195 216 229 233 231 231 231 232 232 231 233 235 235 236
202 210 203 211 197 203 188 194 197 207 200 194 230 247 231 197 174 174 197 193 198 212 212 191 207 202 220 233 187 180 199 220 235 240 238 234 232 231 233 235 238 238 238
203 203 205 207 206 211 189 198 199 207 210 205 196 241 297 350 267 170 186 182 184 201 218 225 205 188 208 223 187 143 181 212 232 243 247 244 237 234 235 237 242 244 243
202 203 202 201 204 211 200 205 187 210 210 220 209 200 205 214 253 263 181 179 183 186 186 209 228 217 207 223 220 147 158 196 227 243 252 253 247 243 243 242 246 248 248
198 200 201 200 204 205 197 199 200 201 219 224 236 223 214 217 230 236 222 212 189 163 167 176 215 205 213 219 168 103 136 179 217 240 256 260 258 255 255 252 254 255 255
195 194 198 197 200 201 200 199 199 206 203 208 221 227 234 244 252 250 250 234 215 170 167 190 173 199 208 198 116 121 153 178 213 234 249 256 260 263 264 262 262 264 265
198 186 194 195 197 199 201 197 200 197 195 203 209 214 229 231 240 248 258 261 246 215 192 185 159 169 161 245 79 226 168 152 187 228 250 259 265 269 271 272 272 275 279
191 186 190 194 195 195 196 192 202 194 189 202 199 197 224 212 231 249 262 273 277 269 221 169 203 126 241 68 44 261 246 109 127 144 295 296 295 290 287 286 284 286 287
194 188 191 189 188 187 187 195 192 192 197 203 208 202 220 222 217 228 242 255 272 283 284 188 194 93 18 314 88 330 7 122 106 82 34 350 330 319 309 303 301 302 303
191 191 192 188 187 186 184 191 200 188 197 196 196 195 202 230 227 226 227 239 245 258 263 255 179 109 58 335 16 328 300 262 114 97 70 37 14 1 351 339 332 331 329
190 191 189 186 187 187 186 189 196 191 194 195 195 192 197 197 206 242 243 244 251 273 270 273 261 162 118 344 341 302 321 327 8 103 93 69 48 34 27 19 12 6 359
185 186 183 183 183 183 185 187 188 188 188 189 192 193 199 200 198 205 240 247 245 238 266 266 247 18 270 9 305 291 323 332 309 124 126 119 87 61 48 40 31 30 20
176 174 174 175 177 180 181 180 179 173 164 161 166 166 170 176 177 188 196 224 259 257 230 254 254 227 273 15 314 318 314 329 322 334 5 350 148 171 151 116 65 40 20
169 166 165 164 164 171 175 170 164 159 154 150 136 121 104 87 68 56 49 82 177 263 252 252 275 308 20 5 349 331 329 320 322 353 329 309 288 281 215 159 98 42 17
156 153 155 154 156 155 125 133 150 146 144 141 131 121 111 101 90 78 67 57 44 32 14 356 16 34 30 12 354 332 336 327 324 14 330 315 318 315 316 334 66 46 7
144 141 143 141 135 118 115 122 129 140 136 127 125 126 118 107 110 107 95 86 69 56 45 33 48 36 33 20 353 341 352 336 329 331 319 308 317 314 310 354 111 83 336
132 130 128 126 121 111 110 113 115 120 110 104 103 109 110 105 97 103 101 88 74 59 51 54 58 47 40 17 354 335 322 302 277 290 335 310 322 317 314 304 175 182 246
124 121 117 116 114 108 107 116 121 117 107 100 94 89 96 95 76 82 101 99 93 89 83 82 79 81 68 39 1 339 341 323 323 331 1 322 321 318 307 296 261 202 244
116 113 108 105 107 105 99 105 116 119 113 107 95 83 74 80 70 60 92 97 93 83 80 97 104 128 77 71 23 355 343 329 326 323 17 331 320 322 312 311 323 315 299